Probability
3 3 4 6 7 6 5 5 6 9 10 10 12 15 15 11 9 8 8 9 10 11 12 11 10 10 9 8 7 6 6 6 7 8 7 6 5 4 6 7 8 8 9
4 5 6 6 6 6 5 4 5 8 9 9 9 10 10 9 7 8 9 9 9 9 9 9 9 8 6 5 4 4 4 4 6 8 8 6 5 5 5 5 6 8 9
5 6 7 7 6 5 5 4 5 6 7 7 5 5 5 5 5 7 8 8 8 7 7 7 6 5 3 2 2 2 2 2 4 6 7 7 7 6 5 4 5 7 7
9 9 9 7 6 6 5 5 5 5 5 4 4 3 2 2 3 4 4 5 5 5 5 6 5 4 2 1 1 1 0 1 2 3 4 5 7 7 5 3 4 5 6
13 12 9 7 6 6 5 4 4 3 3 3 3 3 2 2 3 2 1 2 2 3 3 4 4 3 3 2 2 1 0 0 0 1 1 2 4 5 4 2 2 4 5
16 13 9 7 6 6 6 4 3 3 3 3 4 4 4 4 4 2 0 1 2 2 3 3 3 4 4 3 2 1 0 0 0 0 0 1 1 2 2 2 2 3 3
16 14 10 7 6 6 5 4 3 3 3 3 3 4 4 5 4 2 0 1 1 2 2 2 2 3 3 2 1 1 0 0 0 0 0 0 0 1 2 3 4 3 2
13 12 10 7 5 4 4 3 3 3 3 3 3 4 4 4 3 2 1 0 0 0 1 1 1 1 1 0 0 0 0 0 0 0 0 0 0 1 3 4 4 3 1
10 10 8 5 3 2 3 3 3 3 3 3 3 3 3 3 2 2 1 0 0 0 0 0 0 0 0 0 0 0 0 0 0 0 0 0 0 1 2 3 3 2 1
9 7 4 2 1 1 1 2 3 3 3 3 2 1 1 1 1 1 0 0 0 0 0 0 0 0 0 0 0 0 0 0 0 0 0 0 0 1 1 1 1 1 0
7 4 1 0 0 0 0 1 2 2 2 1 1 0 0 0 0 0 0 0 0 0 0 0 0 0 0 0 0 0 0 0 0 0 0 0 0 0 0 0 0 0 0
5 2 0 0 0 0 0 0 1 1 1 0 0 0 0 0 0 0 0 0 0 0 0 0 0 0 0 0 0 0 0 0 0 0 0 0 0 0 0 0 0 0 0
3 2 0 0 0 0 0 0 0 0 0 0 0 0 0 0 0 0 0 0 0 0 0 0 0 0 0 0 0 0 0 0 0 0 0 0 0 0 0 0 0 0 0
1 1 0 0 0 0 0 0 0 0 0 0 0 0 0 0 0 0 0 0 0 0 0 0 0 0 0 0 0 0 0 0 0 0 0 0 0 0 0 0 0 0 0
0 0 0 0 0 0 0 0 0 0 0 0 0 0 0 0 0 0 0 0 0 0 0 0 0 0 0 0 0 0 0 0 0 0 0 0 0 0 0 0 0 0 0
0 0 0 0 0 0 0 0 0 0 0 0 0 0 0 0 0 0 0 0 0 0 0 0 0 0 0 0 0 0 0 0 0 0 0 0 0 0 0 0 0 0 0
0 0 0 0 0 0 0 0 0 0 0 0 0 0 0 0 0 0 0 0 0 0 0 0 0 0 0 0 0 0 0 0 0 0 0 0 0 0 0 0 0 0 0
0 0 0 0 0 0 0 0 0 0 0 0 0 0 0 0 0 0 0 0 0 0 0 0 0 0 0 0 0 0 0 0 0 0 0 0 0 0 0 0 0 0 0
0 0 0 0 0 0 0 0 0 0 0 0 0 0 0 0 0 0 0 0 0 0 0 0 0 0 0 0 0 0 0 0 0 0 0 0 0 0 0 0 0 0 0
0 0 0 0 0 0 0 0 0 0 0 0 0 0 0 0 0 0 0 0 0 0 0 0 0 0 0 0 0 0 0 0 0 0 0 0 0 0 0 0 0 0 0
0 0 0 0 0 0 0 0 0 0 0 0 0 0 0 0 0 0 0 0 0 0 0 0 0 0 0 0 0 0 0 0 0 0 0 0 0 0 0 0 0 0 0
0 0 0 0 0 0 0 0 0 0 0 0 0 0 0 0 0 0 0 0 0 0 0 0 0 0 0 0 0 0 0 0 0 0 0 0 0 0 0 0 0 0 0
0 0 0 0 0 0 0 0 0 0 0 0 0 0 0 0 0 0 0 0 0 0 0 0 0 0 0 0 0 0 0 0 0 0 0 0 0 0 0 0 0 0 0
0 0 0 0 0 0 0 0 0 0 0 0 0 0 0 0 0 0 0 0 0 0 0 0 0 0 0 0 0 0 0 0 0 0 0 0 0 0 0 0 0 0 0
0 0 0 0 0 0 0 0 0 0 0 0 0 0 0 0 0 0 0 0 0 0 0 0 0 0 0 0 0 0 0 0 0 0 0 0 0 0 0 0 0 0 0
0 0 0 0 0 0 0 0 0 0 0 0 0 0 0 0 0 0 0 0 0 0 0 0 0 0 0 0 0 0 0 0 0 0 0 0 0 0 0 0 0 0 0
Wind_Speed
6 6 6 6 7 7 7 6 5 4 2 2 1 2 3 3 4 4 5 4 4 4 3 2 2 3 2 3 3 3 2 2 1 3 2 1 1 1 1 2 2 2 3
7 6 6 6 7 7 6 5 5 4 3 2 1 2 3 3 3 3 4 5 5 4 3 4 3 2 2 2 2 2 3 2 2 3 3 3 3 2 2 2 3 3 3
7 6 6 6 7 6 5 4 5 4 4 2 2 3 3 2 3 3 4 5 5 5 5 4 4 3 2 2 2 2 3 3 2 3 3 3 2 2 2 3 3 4 4
7 6 6 6 6 6 5 6 5 5 5 4 3 4 3 3 4 3 4 5 6 6 5 4 4 3 3 3 3 3 3 3 3 2 3 3 3 2 2 2 3 4 5
8 7 7 6 6 5 5 6 6 7 7 6 5 4 5 4 3 4 5 4 5 5 5 5 4 4 3 4 4 3 3 2 3 2 2 2 2 3 2 2 2 3 5
9 8 8 7 6 6 6 6 7 7 7 6 7 6 7 6 5 5 4 3 3 4 7 6 5 5 4 4 3 3 3 3 2 2 2 2 2 2 2 2 2 3 3
10 9 8 7 6 7 6 6 7 7 7 7 7 7 6 6 5 4 4 4 4 5 7 6 6 5 5 5 4 3 3 3 2 2 2 2 2 2 1 2 2 3 3
10 10 9 7 7 7 6 7 7 7 7 7 7 6 6 4 5 6 5 5 5 6 6 6 6 6 5 5 4 3 3 3 2 2 2 2 1 2 2 2 3 4 3
10 10 9 8 8 7 6 6 6 7 7 7 7 7 7 7 6 6 5 5 5 5 6 6 6 6 6 5 4 4 4 3 3 2 1 1 0 1 1 2 2 3 4
11 10 9 8 7 7 6 6 6 6 6 7 6 6 7 6 6 6 7 6 6 6 6 7 6 6 6 6 5 5 5 5 4 3 3 2 1 1 0 1 1 1 2
11 10 9 8 7 6 6 5 6 6 7 7 7 7 6 6 7 6 7 6 6 6 6 6 6 6 6 6 6 6 6 6 5 4 4 4 3 1 1 1 2 2 4
11 11 9 8 7 6 6 6 6 7 7 6 6 6 6 7 7 7 6 6 6 6 6 6 6 7 7 6 7 6 7 7 7 6 6 5 4 4 3 2 4 4 5
11 11 9 8 7 6 6 6 6 6 6 6 6 6 6 7 7 7 6 6 6 6 6 6 6 6 6 6 7 7 7 7 7 7 6 6 6 5 4 4 5 5 6
11 10 9 8 8 7 6 6 6 5 5 5 6 6 6 6 6 6 6 6 6 6 6 7 7 7 7 7 7 7 7 8 8 8 7 7 7 6 5 5 6 6 7
11 10 9 9 8 7 7 6 6 5 5 5 6 6 6 6 6 6 6 6 6 7 7 7 7 7 7 8 8 6 7 8 8 8 8 9 9 10 7 5 6 6 6
11 10 10 10 9 8 7 7 6 6 5 6 6 6 6 6 6 6 6 6 6 7 7 7 8 9 8 9 10 8 8 8 8 8 8 8 9 10 10 10 9 7 5
12 11 10 9 8 8 7 7 6 6 6 6 6 5 6 6 5 5 6 6 6 7 7 7 8 9 9 10 10 9 7 8 8 7 7 7 7 7 8 9 8 10 8
11 11 10 10 9 8 7 6 7 6 6 6 6 6 6 6 5 6 6 6 5 6 6 6 7 8 9 10 9 8 6 8 8 8 8 8 8 8 5 7 8 8 7
10 10 10 10 9 9 8 7 7 6 6 6 6 6 5 5 5 6 5 5 5 5 5 6 6 7 8 10 10 9 6 6 7 8 8 7 8 8 6 5 7 7 6
9 10 10 10 9 8 8 7 7 7 6 6 6 5 5 5 5 5 4 4 4 4 4 6 6 7 7 8 10 10 4 5 5 6 7 10 8 7 7 4 5 6 5
11 11 10 9 8 8 7 7 7 7 6 6 5 5 4 4 5 4 3 3 3 3 4 4 4 5 6 6 8 10 5 4 4 5 5 7 7 7 7 5 5 4 2
12 11 10 9 8 7 7 7 6 6 6 6 5 4 4 3 4 3 3 2 2 3 3 3 3 4 4 5 5 6 6 6 4 4 5 6 5 5 5 4 3 3 4
11 10 10 9 8 7 7 7 7 6 6 6 5 4 4 3 2 2 2 2 1 1 2 2 3 3 3 4 3 2 2 3 3 4 5 3 1 1 1 2 2 4 2
10 10 10 9 8 7 7 6 7 6 5 5 5 4 4 3 3 1 1 1 1 1 1 2 2 3 2 2 2 3 4 5 3 2 3 4 3 3 1 3 3 1 2
10 9 9 8 9 8 7 7 6 5 5 5 5 4 4 3 3 2 2 2 3 4 4 3 2 1 2 5 6 5 4 4 4 3 2 2 2 3 2 1 1 0 1
10 9 9 9 9 8 8 7 6 6 5 5 4 3 3 3 2 3 3 2 1 2 0 3 5 3 4 2 2 3 4 4 5 6 3 1 1 1 1 1 1 1 1
Wind_Direction
118 106 96 91 86 75 67 59 55 52 54 73 91 100 90 80 72 66 53 42 29 22 12 353 0 338 334 327 311 296 272 262 251 254 234 210 211 49 30 10 2 17 14
134 117 103 91 81 74 70 62 56 52 53 67 86 85 92 83 73 65 57 41 36 24 24 12 357 356 324 319 319 307 292 273 253 272 265 228 192 133 64 55 44 28 27
145 128 113 94 81 72 66 61 56 50 46 56 104 120 123 113 83 64 57 45 40 40 31 19 8 355 331 353 333 319 295 281 266 266 276 272 243 141 108 67 53 42 38
148 130 116 101 87 75 69 62 58 56 56 57 66 76 76 72 58 48 56 57 49 44 38 28 21 2 358 356 330 350 307 288 278 265 261 278 298 246 157 117 78 56 44
153 137 122 110 98 89 78 68 64 60 57 56 63 75 79 76 70 63 63 55 55 44 34 30 24 15 8 10 355 341 327 308 299 299 290 274 260 252 224 181 135 83 51
144 133 124 115 104 96 88 79 74 64 60 62 65 66 75 75 69 58 51 51 53 45 35 30 23 18 14 8 354 343 343 335 317 298 289 281 271 245 233 183 143 108 71
140 132 128 122 114 102 93 87 82 74 69 67 65 65 73 81 73 60 57 41 43 41 32 25 22 21 16 6 359 360 357 348 334 315 301 294 290 289 260 169 149 123 101
142 134 127 123 115 107 102 95 87 80 74 71 68 65 64 67 66 54 50 47 39 39 30 24 23 22 17 13 8 10 9 1 355 344 320 291 275 255 230 189 161 142 126
140 135 129 124 116 108 96 93 92 86 79 75 76 72 64 62 63 60 51 50 41 39 35 29 25 22 19 18 13 27 20 14 8 5 348 316 308 251 219 191 190 176 151
139 133 130 124 114 107 97 91 89 86 85 80 75 75 70 68 66 59 54 48 46 41 35 33 30 30 27 26 25 35 32 34 33 25 25 9 20 54 144 169 171 205 141
140 134 127 119 115 111 103 110 102 93 85 80 78 76 73 71 69 65 59 52 46 40 38 34 33 37 33 32 35 37 37 42 42 39 47 46 38 47 94 117 123 115 116
138 133 130 127 122 113 105 100 99 95 90 86 83 79 76 74 71 68 62 57 51 44 44 44 42 43 42 38 39 38 39 43 45 44 48 50 61 62 60 82 98 98 104
139 136 137 135 128 121 115 109 103 99 97 96 93 87 79 76 73 69 59 54 52 50 47 46 45 43 42 44 47 46 44 46 47 47 48 51 64 69 71 79 94 104 109
145 144 145 141 134 130 123 119 111 107 105 101 99 91 84 81 77 72 64 54 51 51 48 45 44 41 40 42 49 55 54 53 54 54 53 52 57 63 76 87 97 107 114
151 152 149 142 138 134 133 127 123 125 118 110 103 96 93 88 81 74 68 60 53 52 51 52 50 46 45 30 25 54 62 59 61 64 65 64 62 52 49 69 93 112 122
157 155 149 145 146 144 142 136 131 131 126 114 104 101 100 92 83 77 71 65 57 51 52 53 54 51 45 21 13 18 61 59 60 64 73 83 78 77 70 65 64 67 94
157 156 153 150 147 143 142 139 133 135 128 117 111 108 103 95 89 84 75 68 64 58 55 54 57 59 47 26 19 11 44 58 57 58 61 68 76 82 91 93 98 78 67
157 156 152 147 144 141 141 137 135 136 129 122 115 108 104 99 94 87 77 70 69 63 58 54 56 62 51 28 16 354 57 60 58 60 63 69 68 55 57 91 88 84 75
153 149 147 143 142 143 143 142 140 139 135 127 118 111 109 106 97 87 82 75 73 71 70 63 57 58 55 28 11 353 71 69 66 63 54 54 71 39 11 81 91 90 91
140 140 141 141 141 144 151 150 145 143 134 125 118 112 107 101 94 89 86 86 85 81 79 73 59 54 52 34 15 351 48 67 77 84 83 64 48 29 11 65 84 88 87
138 141 143 141 142 148 151 147 143 136 129 127 121 113 111 110 104 101 94 93 93 83 78 81 78 66 53 58 33 10 11 34 56 72 78 71 47 33 20 19 60 58 20
143 144 143 141 144 152 156 147 136 130 133 134 129 125 126 119 112 115 105 96 102 127 118 109 97 93 84 55 51 31 21 1 43 51 61 71 45 30 18 31 40 320 287
143 145 145 142 146 156 158 144 137 140 142 140 135 134 133 121 118 130 133 147 161 144 108 113 101 93 98 117 136 102 36 4 23 49 49 27 340 269 168 142 282 273 261
145 148 150 149 148 150 149 143 142 146 149 147 146 148 148 149 143 186 144 92 47 57 98 91 89 96 110 93 102 137 155 176 175 130 153 204 236 239 223 206 218 248 1
148 153 154 149 148 149 147 147 149 157 154 150 152 156 149 138 150 128 40 11 45 20 347 12 38 59 82 57 21 345 3 8 29 334 251 210 190 197 181 156 101 220 202
151 153 154 153 151 151 151 152 157 162 161 163 164 160 153 151 161 147 141 106 22 105 87 336 335 28 51 37 348 337 329 322 318 295 265 260 256 268 291 279 231 225 272